Regional Weather Roundup
Issued by NWS

Home | Current Version | Previous Version | Text Only | Print | Product List | Glossary Off
Versions: 1 2 3 4 5 6 7 8 9 10 11 12 13 14 15 16 17 18 19 20 21 22 23 24 25 26 27 28 29 30 31 32 33 34 35 36 37 38 39 40 41 42 43 44 45 46 47 48 49 50

000
ASUS43 KDMX 180107
RWRIA

WEATHER ROUNDUP FOR IOWA
NATIONAL WEATHER SERVICE DES MOINES IA
800 PM CDT FRI APR 17 2015

NOTE: "FAIR" INDICATES FEW OR NO CLOUDS BELOW 12,000 FEET WITH NO
SIGNIFICANT WEATHER AND/OR OBSTRUCTIONS TO VISIBILITY.

* - THESE STATIONS ARE NOT NWS STATIONS...THUS NOT UNDER NWS
QUALITY CONTROL.  THEY ALSO DO NOT REPORT WEATHER SUCH
AS PRECIPITATION OR FOG.

IAZ001>003-012>014-020>022-031>034-043>046-180200-
   NORTHWEST IOWA

CITY           SKY/WX    TMP DP  RH WIND       PRES   REMARKS
CARROLL *      CLEAR     72  48  43 CALM      29.99S
CHEROKEE *     CLOUDY    66  48  52 CALM      30.01S
DENISON *      PTCLDY    70  50  49 CALM      29.98S
LE MARS *      CLEAR     70  48  46 CALM      30.02S
ORANGE CITY *  PTCLDY    68  45  42 CALM      30.03R
SHELDON *      MOCLDY    70  43  37 NE6       30.02R
SIOUX CITY     MOCLDY    72  45  37 NE7       30.00S
SPENCER        CLOUDY    67  46  47 N8        30.02S
STORM LAKE *   CLEAR     68  45  42 NE6       30.03R
$$

IAZ055>058-069>071-079>083-090>094-180200-
   SOUTHWEST IOWA

CITY           SKY/WX    TMP DP  RH WIND       PRES   REMARKS
ATLANTIC *     CLEAR     72  54  53 SE6       30.00R
AUDUBON *      CLEAR     70  52  52 CALM      30.01S
CLARINDA *     PTCLDY    70  57  64 CALM      30.00S
COUNCIL BLFS * CLEAR     70  54  56 SE5       29.99S
CRESTON *      PTCLDY    70  54  56 NE5       30.01R
HARLAN  *      CLEAR     72  52  49 CALM      30.03S
LAMONI         CLOUDY    74  54  49 CALM      29.99R
RED OAK *      CLOUDY    72  54  53 E6        29.99S
SHENANDOAH *   CLOUDY    70  55  60 SE5       29.99S
$$

IAZ047>049-059>061-072>074-084-180200-
   CENTRAL IOWA

CITY           SKY/WX    TMP DP  RH WIND       PRES   REMARKS
AMES           CLOUDY    72  49  44 S5        29.99R
ANKENY *       CLEAR     73  52  46 CALM      29.99S
CHARITON *     CLEAR     70  54  56 NE6       29.99S
DES MOINES     CLOUDY    75  50  41 S5        29.99R
GRINNELL*      MOCLDY    70  50  49 S5        30.00R
KNOXVILLE *    PTCLDY    73  50  43 CALM      29.98S
MARSHALLTOWN   CLOUDY    71  49  45 CALM      29.98R
PELLA *        MOCLDY    72  55  56 CALM      30.00S
PERRY *          N/A     73  48  40 CALM      29.99S
$$

IAZ004>006-015-016-023>025-035-036-180200-
   NORTH CENTRAL IOWA

CITY           SKY/WX    TMP DP  RH WIND       PRES   REMARKS
ALGONA *       CLEAR     70  46  43 CALM      30.02S
CLARION *      CLEAR     70  45  40 N7        30.01R
ESTHERVILLE    CLOUDY    67  40  37 N8        30.01F
FORT DODGE *   CLOUDY    72  45  37 N6        30.01S
MASON CITY     CLOUDY    67  47  48 N6        30.02S
FOREST CITY *  CLEAR     68  45  42 N3        30.01S
IOWA FALLS *     N/A     72  46  40 N3        30.01R
$$

IAZ007>011-017>019-026>030-037>042-050>054-066-180200-
   NORTHEAST IOWA

CITY           SKY/WX    TMP DP  RH WIND       PRES   REMARKS
CEDAR RAPIDS   MOCLDY    70  49  47 S3        29.98S
CHARLES CITY * CLEAR     70  45  40 N6        30.01S HAZE
CLINTON *      PTCLDY    72  45  37 NW6       30.01S
DECORAH *      CLEAR     70  43  37 CALM      30.00R
DUBUQUE        CLOUDY    69  48  47 CALM      29.99S
MONTICELLO *   MOCLDY    70  50  49 CALM      29.98S
OELWEIN *      CLOUDY    72  48  43 CALM      30.00S
WATERLOO       MOCLDY    73  45  36 CALM      29.98S
$$

IAZ064-065-067-068-078-180200-
   EAST CENTRAL IOWA

CITY           SKY/WX    TMP DP  RH WIND       PRES   REMARKS
DAVENPORT      MOCLDY    71  44  37 W5        29.99R
IOWA CITY      MOCLDY    68  53  58 CALM      30.00R
MT. PLEASANT * PTCLDY    72  50  46 CALM      29.99R
MUSCATINE *    CLEAR     73  48  40 CALM      29.99R
QUAD CITIES    MOCLDY    67  51  56 CALM      29.97R
$$

IAZ062-063-075>077-085>089-095>099-180200-
   SOUTHEAST IOWA

CITY           SKY/WX    TMP DP  RH WIND       PRES   REMARKS
BURLINGTON     PTCLDY    73  52  47 CALM      29.98R
FAIRFIELD *    CLEAR     70  52  52 CALM      29.99S
FORT MADISON * CLEAR     73  54  49 CALM      30.00R
KEOKUK *       MOCLDY    73  55  53 SW5       29.98R
OSKALOOSA *      N/A     72  50  46 CALM      30.00R
CENTERVILLE *  MOCLDY    72  55  56 CALM      30.00S
OTTUMWA        PTCLDY    67  50  54 NE5       29.99R
WASHINGTON *   CLEAR     73  50  43 CALM      29.99S
$$

ABBREVIATIONS USED IN REMARKS
   TC - TEMPERATURES IN CELSIUS
  WCI - WIND CHILL INDEX
   HX - HEAT INDEX
  VSB - VISIBILITY
$$




USA.gov is the U.S. government's official web portal to all federal, state and local government web resources and services.